| time (UTC) | temp C | wind direction | speed KPH | gust KPH | rain 1hr cm | rain 24hr cm | rain mn cm | humidity % | barometer mb |
| 20260507090002 | 6 | 118 | 3.2 | 0.0 | 0.00 | 0.00 | 0.00 | 61 | 1009.9 |
| 20260507084502 | 6 | 118 | 3.2 | 0.0 | 0.00 | 0.00 | 0.00 | 61 | 1009.9 |
| 20260507083002 | 4 | 140 | 3.2 | 0.0 | 0.00 | 0.00 | 0.00 | 61 | 1009.9 |
| 20260507081502 | 4 | 140 | 3.2 | 0.0 | 0.00 | 0.00 | 0.00 | 61 | 1009.9 |
| 20260507080002 | 4 | 140 | 3.2 | 0.0 | 0.00 | 0.00 | 0.00 | 61 | 1009.9 |
| 20260507074502 | 2 | 148 | 1.6 | 0.0 | 0.00 | 0.00 | 0.00 | 61 | 1009.9 |
| 20260507073002 | 2 | 148 | 1.6 | 0.0 | 0.00 | 0.00 | 0.00 | 61 | 1009.9 |
| 20260507071501 | 2 | 148 | 1.6 | 0.0 | 0.00 | 0.00 | 0.00 | 61 | 1009.9 |
| 20260507070003 | 2 | 148 | 1.6 | 0.0 | 0.00 | 0.00 | 0.00 | 61 | 1009.9 |
| 20260507064501 | 2 | 148 | 1.6 | 0.0 | 0.00 | 0.00 | 0.00 | 61 | 1009.9 |
| 20260507063002 | 0 | 293 | 3.2 | 0.0 | 0.00 | 0.00 | 0.00 | 61 | 1009.9 |
| 20260507061502 | 0 | 293 | 3.2 | 0.0 | 0.00 | 0.00 | 0.00 | 61 | 1009.9 |
| 20260507060002 | -1 | 288 | 3.2 | 0.0 | 0.00 | 0.00 | 0.00 | 61 | 1009.9 |
| 20260507054501 | -1 | 288 | 3.2 | 0.0 | 0.00 | 0.00 | 0.00 | 61 | 1009.9 |
| 20260507053003 | -1 | 288 | 3.2 | 0.0 | 0.00 | 0.00 | 0.00 | 61 | 1009.9 |
| 20260507051501 | -1 | 288 | 3.2 | 0.0 | 0.00 | 0.00 | 0.00 | 61 | 1009.9 |
| 20260507050002 | -1 | 288 | 3.2 | 0.0 | 0.00 | 0.00 | 0.00 | 61 | 1009.9 |
| 20260507044501 | -1 | 293 | 4.8 | 0.0 | 0.00 | 0.00 | 0.00 | 61 | 1009.9 |
| 20260507043002 | -1 | 293 | 4.8 | 0.0 | 0.00 | 0.00 | 0.00 | 61 | 1009.9 |
| 20260507041502 | -1 | 293 | 4.8 | 0.0 | 0.00 | 0.00 | 0.00 | 61 | 1009.9 |
| 20260507040002 | -1 | 289 | 4.8 | 0.0 | 0.00 | 0.00 | 0.00 | 61 | 1009.9 |
| 20260507034502 | -1 | 289 | 4.8 | 0.0 | 0.00 | 0.00 | 0.00 | 61 | 1009.9 |
| 20260507033002 | -1 | 289 | 4.8 | 0.0 | 0.00 | 0.00 | 0.00 | 61 | 1009.9 |
| 20260507031501 | 0 | 289 | 4.8 | 0.0 | 0.00 | 0.00 | 0.00 | 61 | 1009.9 |
| 20260507030002 | 0 | 289 | 4.8 | 0.0 | 0.00 | 0.00 | 0.00 | 61 | 1009.9 |
| 20260507024502 | 0 | 289 | 4.8 | 0.0 | 0.00 | 0.00 | 0.00 | 61 | 1009.9 |
| 20260507023002 | 0 | 289 | 4.8 | 0.0 | 0.00 | 0.00 | 0.00 | 61 | 1009.9 |
| 20260507021502 | 0 | 289 | 4.8 | 0.0 | 0.00 | 0.00 | 0.00 | 61 | 1009.9 |
| 20260507020001 | 0 | 294 | 4.8 | 0.0 | 0.00 | 0.00 | 0.00 | 61 | 1009.9 |
| 20260507014502 | 0 | 294 | 4.8 | 0.0 | 0.00 | 0.00 | 0.00 | 61 | 1009.9 |
| 20260507013002 | 0 | 294 | 4.8 | 0.0 | 0.00 | 0.00 | 0.00 | 61 | 1009.9 |
| 20260507011502 | 0 | 294 | 4.8 | 0.0 | 0.00 | 0.00 | 0.00 | 61 | 1009.9 |
| 20260507010002 | 0 | 294 | 4.8 | 0.0 | 0.00 | 0.00 | 0.00 | 61 | 1009.9 |
| 20260507004502 | 0 | 300 | 4.8 | 0.0 | 0.00 | 0.00 | 0.00 | 61 | 1009.9 |
| 20260507003002 | 0 | 300 | 4.8 | 0.0 | 0.00 | 0.00 | 0.00 | 61 | 1009.9 |
| 20260507001502 | 0 | 296 | 4.8 | 0.0 | 0.00 | 0.00 | 0.00 | 61 | 1009.9 |
| 20260507000002 | 0 | 296 | 4.8 | 0.0 | 0.00 | 0.00 | 0.00 | 61 | 1009.9 |
| 20260506234502 | 0 | 296 | 4.8 | 0.0 | 0.00 | 0.00 | 0.00 | 61 | 1009.9 |
| 20260506233002 | 1 | 296 | 4.8 | 0.0 | 0.00 | 0.00 | 0.00 | 61 | 1009.9 |
| 20260506231502 | 1 | 296 | 4.8 | 0.0 | 0.00 | 0.00 | 0.00 | 61 | 1009.9 |
| 20260506230002 | 1 | 296 | 4.8 | 0.0 | 0.00 | 0.00 | 0.00 | 61 | 1009.9 |
| 20260506224502 | 1 | 296 | 4.8 | 0.0 | 0.00 | 0.00 | 0.00 | 61 | 1009.9 |
| 20260506223001 | 1 | 296 | 4.8 | 0.0 | 0.00 | 0.00 | 0.00 | 61 | 1009.9 |
| 20260506221502 | 2 | 314 | 6.4 | 0.0 | 0.00 | 0.00 | 0.00 | 61 | 1009.9 |
| 20260506220002 | 2 | 314 | 6.4 | 0.0 | 0.00 | 0.00 | 0.00 | 61 | 1009.9 |
| 20260506214502 | 4 | 298 | 6.4 | 0.0 | 0.00 | 0.00 | 0.00 | 61 | 1009.9 |
| 20260506213002 | 4 | 298 | 6.4 | 0.0 | 0.00 | 0.00 | 0.00 | 61 | 1009.9 |
| 20260506211501 | 4 | 298 | 6.4 | 0.0 | 0.00 | 0.00 | 0.00 | 61 | 1009.9 |
| 20260506210002 | 3 | 298 | 6.4 | 0.0 | 0.00 | 0.00 | 0.00 | 61 | 1009.9 |
| 20260506204501 | 3 | 298 | 6.4 | 0.0 | 0.00 | 0.00 | 0.00 | 61 | 1009.9 |
| 20260506203002 | 5 | 293 | 6.4 | 0.0 | 0.00 | 0.00 | 0.00 | 61 | 1009.9 |
| 20260506201501 | 5 | 293 | 6.4 | 0.0 | 0.00 | 0.00 | 0.00 | 61 | 1009.9 |
| 20260506200002 | 5 | 293 | 6.4 | 0.0 | 0.00 | 0.00 | 0.00 | 61 | 1009.9 |
| 20260506194501 | 7 | 300 | 6.4 | 0.0 | 0.00 | 0.00 | 0.00 | 61 | 1009.9 |
| 20260506193002 | 7 | 300 | 6.4 | 0.0 | 0.00 | 0.00 | 0.00 | 61 | 1009.9 |
| 20260506191501 | 7 | 300 | 6.4 | 0.0 | 0.00 | 0.00 | 0.00 | 61 | 1009.9 |
| 20260506190002 | 7 | 308 | 6.4 | 0.0 | 0.00 | 0.00 | 0.00 | 61 | 1009.9 |
| 20260506184502 | 7 | 308 | 6.4 | 0.0 | 0.00 | 0.00 | 0.00 | 61 | 1009.9 |
| 20260506183002 | 8 | 296 | 8.0 | 0.0 | 0.00 | 0.00 | 0.00 | 61 | 1009.9 |
| 20260506181502 | 8 | 296 | 8.0 | 0.0 | 0.00 | 0.00 | 0.00 | 61 | 1009.9 |
| 20260506180003 | 8 | 296 | 8.0 | 0.0 | 0.00 | 0.00 | 0.00 | 61 | 1009.9 |
| 20260506174501 | 10 | 276 | 6.4 | 0.0 | 0.00 | 0.00 | 0.00 | 61 | 1009.9 |
| 20260506173002 | 10 | 276 | 6.4 | 0.0 | 0.00 | 0.00 | 0.00 | 61 | 1009.9 |
| 20260506171502 | 10 | 276 | 6.4 | 0.0 | 0.00 | 0.00 | 0.00 | 61 | 1009.9 |
| 20260506170002 | 10 | 276 | 6.4 | 0.0 | 0.00 | 0.00 | 0.00 | 61 | 1009.9 |
| 20260506164502 | 10 | 276 | 6.4 | 0.0 | 0.00 | 0.00 | 0.00 | 61 | 1009.9 |
| 20260506163002 | 10 | 252 | 8.0 | 0.0 | 0.00 | 0.00 | 0.00 | 61 | 1009.9 |
| 20260506161501 | 10 | 252 | 8.0 | 0.0 | 0.00 | 0.00 | 0.00 | 61 | 1009.9 |
| 20260506160001 | 11 | 268 | 4.8 | 0.0 | 0.00 | 0.00 | 0.00 | 61 | 1009.9 |
| 20260506154501 | 11 | 268 | 4.8 | 0.0 | 0.00 | 0.00 | 0.00 | 61 | 1009.9 |
| 20260506153002 | 11 | 268 | 4.8 | 0.0 | 0.00 | 0.00 | 0.00 | 61 | 1009.9 |
| 20260506151502 | 11 | 268 | 4.8 | 0.0 | 0.00 | 0.00 | 0.00 | 61 | 1009.9 |
| 20260506150002 | 11 | 268 | 4.8 | 0.0 | 0.00 | 0.00 | 0.00 | 61 | 1009.9 |
| 20260506144502 | 10 | 248 | 4.8 | 0.0 | 0.00 | 0.00 | 0.00 | 61 | 1009.9 |
| 20260506143002 | 10 | 248 | 4.8 | 0.0 | 0.00 | 0.00 | 0.00 | 61 | 1009.9 |
| 20260506141502 | 10 | 248 | 4.8 | 0.0 | 0.00 | 0.00 | 0.00 | 61 | 1009.9 |
| 20260506140001 | 10 | 238 | 3.2 | 0.0 | 0.00 | 0.00 | 0.00 | 61 | 1009.9 |
| 20260506134502 | 10 | 238 | 3.2 | 0.0 | 0.00 | 0.00 | 0.00 | 61 | 1009.9 |
| 20260506133001 | 10 | 238 | 3.2 | 0.0 | 0.00 | 0.00 | 0.00 | 61 | 1009.9 |
| 20260506131502 | 10 | 238 | 3.2 | 0.0 | 0.00 | 0.00 | 0.00 | 61 | 1009.9 |
| 20260506130002 | 10 | 238 | 3.2 | 0.0 | 0.00 | 0.00 | 0.00 | 61 | 1009.9 |
| 20260506124502 | 9 | 242 | 3.2 | 0.0 | 0.00 | 0.00 | 0.00 | 61 | 1009.9 |
| 20260506123002 | 9 | 242 | 3.2 | 0.0 | 0.00 | 0.00 | 0.00 | 61 | 1009.9 |
| 20260506121502 | 9 | 221 | 1.6 | 0.0 | 0.00 | 0.00 | 0.00 | 61 | 1009.9 |
| 20260506120002 | 9 | 221 | 1.6 | 0.0 | 0.00 | 0.00 | 0.00 | 61 | 1009.9 |
| 20260506114502 | 9 | 221 | 1.6 | 0.0 | 0.00 | 0.00 | 0.00 | 61 | 1009.9 |
| 20260506113002 | 8 | 134 | 3.2 | 0.0 | 0.00 | 0.00 | 0.00 | 61 | 1009.9 |
| 20260506111501 | 8 | 134 | 3.2 | 0.0 | 0.00 | 0.00 | 0.00 | 61 | 1009.9 |
| 20260506110002 | 8 | 134 | 3.2 | 0.0 | 0.00 | 0.00 | 0.00 | 61 | 1009.9 |
| 20260506104501 | 8 | 134 | 3.2 | 0.0 | 0.00 | 0.00 | 0.00 | 61 | 1009.9 |
| 20260506103002 | 8 | 134 | 3.2 | 0.0 | 0.00 | 0.00 | 0.00 | 61 | 1009.9 |
| 20260506101501 | 7 | 116 | 4.8 | 0.0 | 0.00 | 0.00 | 0.00 | 61 | 1009.9 |
| 20260506100002 | 7 | 116 | 4.8 | 0.0 | 0.00 | 0.00 | 0.00 | 61 | 1009.9 |
| 20260506094501 | 6 | 114 | 4.8 | 0.0 | 0.00 | 0.00 | 0.00 | 61 | 1009.9 |
| 20260506093002 | 6 | 114 | 4.8 | 0.0 | 0.00 | 0.00 | 0.00 | 61 | 1009.9 |
| 20260506091501 | 6 | 114 | 4.8 | 0.0 | 0.00 | 0.00 | 0.00 | 61 | 1009.9 |